Regional Weather Roundup
Issued by NWS

Home | Current Version | Previous Version | Graphics & Text | Print | Product List | Glossary On
Versions: 1 2 3 4 5 6 7 8 9 10 11 12 13 14 15 16 17 18 19 20 21 22 23 24 25 26 27 28 29 30 31 32 33 34 35 36 37 38 39 40 41 42 43 44 45 46 47 48 49 50
000
ASUS43 KDMX 260107
RWRIA

WEATHER ROUNDUP FOR IOWA
NATIONAL WEATHER SERVICE DES MOINES IA
700 PM CST TUE NOV 25 2014

NOTE: "FAIR" INDICATES FEW OR NO CLOUDS BELOW 12,000 FEET WITH NO
SIGNIFICANT WEATHER AND/OR OBSTRUCTIONS TO VISIBILITY.

* - THESE STATIONS ARE NOT NWS STATIONS...THUS NOT UNDER NWS
QUALITY CONTROL.  THEY ALSO DO NOT REPORT WEATHER SUCH
AS PRECIPITATION OR FOG.

IAZ001>003-012>014-020>022-031>034-043>046-260200-
   NORTHWEST IOWA

CITY           SKY/WX    TMP DP  RH WIND       PRES   REMARKS
CARROLL *      CLEAR     30  19  64 SE10      29.96F WCI  21
CHEROKEE *     CLOUDY    32  19  59 SE13      29.92S WCI  22
DENISON *      MOCLDY    34  19  55 S14G24    29.91F WCI  24
LE MARS *      CLOUDY    36  23  60 SE8       29.89F WCI  29
ORANGE CITY *  MOCLDY    36  21  55 SE8       29.88F WCI  29
SHELDON *      CLOUDY    32  21  64 SE13      29.88F WCI  22
SIOUX CITY     CLOUDY    37  24  59 SE9       29.89F WCI  30
SPENCER        MOCLDY    30  17  58 SE14      29.92F WCI  19
STORM LAKE *   PTCLDY    30  19  64 SE15G21   29.93F WCI  19
$$

IAZ055>058-069>071-079>083-090>094-260200-
   SOUTHWEST IOWA

CITY           SKY/WX    TMP DP  RH WIND       PRES   REMARKS
ATLANTIC *     MOCLDY    34  19  55 S12       29.97F WCI  25
AUDUBON *      CLEAR     30  18  59 SE6       29.97F WCI  24
CLARINDA *     CLOUDY    34  19  55 S6        30.02F WCI  29
COUNCIL BLFS * CLOUDY    36  23  60 S15       29.92F WCI  26
CRESTON *      CLEAR     30  18  59 S9        30.02S WCI  22
HARLAN  *      CLOUDY    34  19  55 S13       29.98F WCI  25
LAMONI         PTCLDY    30  16  56 S8        30.04F WCI  22
RED OAK *      CLOUDY    36  19  51 S13       29.98F WCI  27
SHENANDOAH *   CLOUDY    36  23  60 SE14      29.99F WCI  27
$$

IAZ047>049-059>061-072>074-084-260200-
   CENTRAL IOWA

CITY           SKY/WX    TMP DP  RH WIND       PRES   REMARKS
AMES           PTCLDY    26  15  63 SE6       30.04F WCI  19
ANKENY *       CLEAR     28  14  54 SE6       30.05S WCI  22
CHARITON *     MOCLDY    28  16  59 S7        30.06S WCI  21
DES MOINES     MOCLDY    31  10  41 SE10      30.05S WCI  22
GRINNELL*      CLEAR     25  16  68 SE5       30.08S WCI  19
KNOXVILLE *    CLEAR     28  12  50 SE7       30.06S WCI  21
MARSHALLTOWN   PTCLDY    21  16  81 E8        30.06S WCI  11
PELLA *        CLEAR     27  18  69 SE5       30.09S WCI  21
PERRY *          N/A     28  21  74 SE7       30.02S WCI  21
$$

IAZ004>006-015-016-023>025-035-036-260200-
   NORTH CENTRAL IOWA

CITY           SKY/WX    TMP DP  RH WIND       PRES   REMARKS
ALGONA *       CLEAR     28  16  59 S15       29.98F WCI  17
CLARION *      CLEAR     27  19  74 SE13      30.01F WCI  16
ESTHERVILLE    MOCLDY    26  15  63 SE15      29.94F WCI  14
FORT DODGE *   MOCLDY    28  12  50 SE7       30.00F WCI  21
MASON CITY     CLOUDY    22  16  78 SE12      30.03F WCI  10
FOREST CITY *  MOCLDY    27  21  80 SE10      30.00F WCI  17
IOWA FALLS *     N/A     23  18  80 SE9       30.05F WCI  13
$$

IAZ007>011-017>019-026>030-037>042-050>054-066-260200-
   NORTHEAST IOWA

CITY           SKY/WX    TMP DP  RH WIND       PRES   REMARKS
CEDAR RAPIDS   CLEAR     19  16  88 SE3       30.10S
CHARLES CITY * CLOUDY    19  14  79 SE10      30.06S WCI   8
CLINTON *      CLEAR     16  10  79 S5        30.16S WCI   9
DECORAH *      CLEAR     16  10  79 S6        30.06S WCI   7
DUBUQUE        CLEAR     15  12  88 SW3       30.10S
MONTICELLO *   CLEAR     16  14  93 CALM      30.11S
OELWEIN *      CLEAR     18  12  79 SE6       30.09S WCI   9
WATERLOO       CLEAR     15  12  88 SE7       30.08F WCI   5
$$

IAZ064-065-067-068-078-260200-
   EAST CENTRAL IOWA

CITY           SKY/WX    TMP DP  RH WIND       PRES   REMARKS
DAVENPORT      CLEAR     14  10  84 SE6       30.14S WCI   5
IOWA CITY      CLEAR     21  18  88 SE5       30.13S WCI  15
MT. PLEASANT * CLEAR     21  18  86 SE6       30.13S WCI  14
MUSCATINE *    CLEAR     19  18  93 CALM      30.16R
QUAD CITIES    CLEAR     17  14  88 SE6       30.15S WCI   9
$$

IAZ062-063-075>077-085>089-095>099-260200-
   SOUTHEAST IOWA

CITY           SKY/WX    TMP DP  RH WIND       PRES   REMARKS
BURLINGTON     CLEAR     24  21  88 E3        30.14S
FAIRFIELD *    CLEAR     23  19  86 SE5       30.11F WCI  17
FORT MADISON * CLEAR     27  21  80 E3        30.14S
KEOKUK *       CLEAR     27  21  80 E5        30.13S WCI  21
OSKALOOSA *      N/A     25  18  74 SE9       30.09F WCI  15
CENTERVILLE *    N/A     25  18  74 SE6       30.09F WCI  18
OTTUMWA        CLEAR     25  17  72 SE7       30.09F WCI  17
WASHINGTON *   CLEAR     23  23 100 SE7       30.12F WCI  15
$$

ABBREVIATIONS USED IN REMARKS
   TC - TEMPERATURES IN CELSIUS
  WCI - WIND CHILL INDEX
   HX - HEAT INDEX
  VSB - VISIBILITY
$$




USA.gov is the U.S. government's official web portal to all federal, state and local government web resources and services.